Weather History for West Palm Beach, FL

Change the Weather History Date:

Friday, June 21, 2013

  Actual Average Record
Temperature  
Mean Temperature 84 °F 82 °F  
Max Temperature 90 °F 89 °F 96 °F (2009)
Min Temperature 77 °F 75 °F 67 °F (1929)
Degree Days  
Heating Degree Days 0 0  
Month to date heating degree days 0 0  
Since 1 June heating degree days 0 0  
Since 1 July heating degree days 164 233  
Cooling Degree Days 19 17  
Month to date cooling degree days 316 339  
Year to date cooling degree days 1501 1448  
Since 1 June cooling degree days 316 339  
Growing Degree Days 34 (Base 50)    
Moisture  
Dew Point 70 °F    
Average Humidity 65    
Maximum Humidity 79    
Minimum Humidity 50    
Precipitation  
Precipitation 0.00 in 0.29 in 2.41 in (2002)
Month to date precipitation 6.65 5.87  
Year to date precipitation 31.60 24.58  
Snow  
Snow 0.00 in - - ()
Month to date snowfall 0.0  
Since 1 June snowfall 0.0  
Since 1 July snowfall 0.0  
Snow Depth 0.00 in    
Sea Level Pressure  
Sea Level Pressure 30.08 in    
Wind  
Wind Speed 9 mph (SE)    
Max Wind Speed 15 mph    
Max Gust Speed 22 mph    
Visibility 10 miles    
Events      
T = Trace of Precipitation, MM = Missing Value Source: NWS Daily Summary

Daily Weather History Graph

Daily Weather History Graph

Search for Another Location

Airport:

Trip Planner

Search our weather history database for the weather conditions in past years. The results will help you decide how hot, cold, wet, or windy it might be!

Date:

Astronomy

Jun. 21, 2013 Rise Set
Actual Time 6:27 AM EDT 8:16 PM EDT
Civil Twilight 6:01 AM EDT 8:43 PM EDT
Nautical Twilight 5:29 AM EDT 9:14 PM EDT
Astronomical Twilight 4:56 AM EDT 9:48 PM EDT
Moon 6:31 PM EDT (6/21) 4:34 AM EDT (6/21)
Length of Visible Light 14h 41m
Length of Day
13h 49m
Waxing Gibbous, 95% of the Moon is Illuminated
Jun 21
Waxing Gibbous
Jun 23
Full
Jun 30
Last Quarter
Jul 8
New
Jul 15
First Quarter

Hourly Weather History & Observations

Time (EDT) Temp. Heat Index Dew Point Humidity Pressure Visibility Wind Dir Wind Speed Gust Speed Precip Events Conditions
12:53 AM 82.0 °F 85.9 °F 70.0 °F 67% 30.09 in 10.0 mi SSE 6.9 mph - N/A   Mostly Cloudy
1:53 AM 82.9 °F 88.0 °F 72.0 °F 69% 30.07 in 10.0 mi SE 4.6 mph - N/A   Mostly Cloudy
2:53 AM 82.9 °F 88.0 °F 72.0 °F 69% 30.05 in 10.0 mi SE 5.8 mph - N/A   Mostly Cloudy
3:45 AM 82.4 °F 87.2 °F 71.6 °F 70% 30.04 in 10.0 mi South 6.9 mph - N/A   Scattered Clouds
3:53 AM 80.1 °F 83.8 °F 72.0 °F 76% 30.04 in 10.0 mi SW 5.8 mph - N/A   Scattered Clouds
4:53 AM 79.0 °F - 71.1 °F 77% 30.04 in 10.0 mi Calm Calm - N/A   Mostly Cloudy
5:53 AM 79.0 °F - 71.1 °F 77% 30.04 in 10.0 mi Calm Calm - N/A   Scattered Clouds
6:53 AM 80.1 °F 83.6 °F 71.1 °F 74% 30.05 in 10.0 mi Calm Calm - N/A   Scattered Clouds
7:53 AM 82.9 °F 87.5 °F 71.1 °F 67% 30.07 in 10.0 mi Variable 4.6 mph - N/A   Scattered Clouds
8:53 AM 86.0 °F 90.7 °F 70.0 °F 59% 30.09 in 10.0 mi SSE 12.7 mph - N/A   Scattered Clouds
9:53 AM 87.1 °F 92.0 °F 70.0 °F 57% 30.10 in 10.0 mi SE 10.4 mph - N/A   Scattered Clouds
10:53 AM 88.0 °F 92.1 °F 69.1 °F 53% 30.11 in 10.0 mi SSE 11.5 mph - N/A   Scattered Clouds
11:53 AM 89.1 °F 93.7 °F 69.1 °F 52% 30.12 in 10.0 mi ESE 11.5 mph - N/A   Scattered Clouds
12:53 PM 89.1 °F 94.1 °F 70.0 °F 53% 30.11 in 10.0 mi SE 11.5 mph 20.7 mph N/A   Scattered Clouds
1:53 PM 89.1 °F 94.1 °F 70.0 °F 53% 30.10 in 10.0 mi SE 11.5 mph - N/A   Mostly Cloudy
2:53 PM 89.1 °F 94.1 °F 70.0 °F 53% 30.09 in 10.0 mi SE 13.8 mph - N/A   Mostly Cloudy
3:53 PM 89.1 °F 92.9 °F 68.0 °F 50% 30.08 in 10.0 mi East 12.7 mph - N/A   Scattered Clouds
4:53 PM 88.0 °F 92.9 °F 70.0 °F 55% 30.07 in 10.0 mi ESE 10.4 mph - N/A   Scattered Clouds
5:53 PM 87.1 °F 92.8 °F 71.1 °F 59% 30.06 in 10.0 mi ESE 15.0 mph - N/A   Scattered Clouds
6:53 PM 84.9 °F 89.4 °F 70.0 °F 61% 30.08 in 10.0 mi ESE 9.2 mph - N/A   Scattered Clouds
7:53 PM 84.0 °F 87.8 °F 69.1 °F 61% 30.08 in 10.0 mi East 8.1 mph - N/A   Scattered Clouds
8:53 PM 84.0 °F 87.8 °F 69.1 °F 61% 30.10 in 10.0 mi East 9.2 mph - N/A   Scattered Clouds
9:53 PM 84.0 °F 87.8 °F 69.1 °F 61% 30.11 in 10.0 mi East 9.2 mph - N/A   Scattered Clouds
10:53 PM 84.0 °F 87.8 °F 69.1 °F 61% 30.12 in 10.0 mi East 9.2 mph - N/A   Partly Cloudy
11:53 PM 82.9 °F 87.0 °F 70.0 °F 65% 30.11 in 10.0 mi ESE 8.1 mph - N/A   Partly Cloudy